Weather History for Hutchinson, MN

Change the Weather History Date:

Sunday, October 12, 2014

  Actual Average Record
Temperature  
Mean Temperature 52 °F -  
Max Temperature 64 °F 62 °F 84 °F (1975)
Min Temperature 39 °F 36 °F 19 °F (2012)
Degree Days  
Heating Degree Days 14    
Growing Degree Days 2 (Base 50)    
Moisture  
Dew Point 39 °F    
Average Humidity 67    
Maximum Humidity 91    
Minimum Humidity 35    
Precipitation  
Precipitation 0.00 in - - ()
Sea Level Pressure  
Sea Level Pressure 29.81 in    
Wind  
Wind Speed 7 mph (SE)    
Max Wind Speed 18 mph    
Max Gust Speed 26 mph    
Visibility 10 miles    
Events      
Averages and records for this station are not official NWS values.
T = Trace of Precipitation, MM = Missing Value Source: NWS Daily Summary

Daily Weather History Graph

Daily Weather History Graph

Search for Another Location

Airport:

Trip Planner

Search our weather history database for the weather conditions in past years. The results will help you decide how hot, cold, wet, or windy it might be!

Date:

Astronomy

Oct. 12, 2014 Rise Set
Actual Time 7:29 AM CDT 6:37 PM CDT
Civil Twilight 6:59 AM CDT 7:07 PM CDT
Nautical Twilight 6:25 AM CDT 7:41 PM CDT
Astronomical Twilight 5:51 AM CDT 8:15 PM CDT
Moon 9:48 PM CDT (10/12) 12:00 PM CDT (10/12)
Length of Visible Light 12h 07m
Length of Day
11h 08m
Waning Gibbous, 79% of the Moon is Illuminated
Oct 12
Waning Gibbous
Oct 15
Last Quarter
Oct 23
New
Oct 30
First Quarter
Nov 6
Full

Hourly Weather History & Observations

Time (CDT) Temp. Windchill Dew Point Humidity Pressure Visibility Wind Dir Wind Speed Gust Speed Precip Events Conditions
12:12 AM 41.0 °F 38.0 °F 32.7 °F 72% 29.96 in 10.0 mi SE 4.6 mph - N/A   Clear
12:33 AM 41.4 °F 39.4 °F 32.9 °F 72% 29.95 in 10.0 mi SE 3.5 mph - N/A   Clear
12:53 AM 40.6 °F 38.6 °F 33.1 °F 74% 29.94 in 10.0 mi SE 3.5 mph - N/A   Clear
1:13 AM 40.8 °F 38.8 °F 33.3 °F 74% 29.94 in 10.0 mi SSE 3.5 mph - N/A   Clear
1:32 AM 41.9 °F 40.0 °F 33.8 °F 73% 29.93 in 10.0 mi SSE 3.5 mph - N/A   Clear
1:53 AM 41.2 °F 38.2 °F 34.2 °F 76% 29.92 in 10.0 mi SSE 4.6 mph - N/A   Clear
2:12 AM 41.0 °F 39.0 °F 34.3 °F 77% 29.92 in 10.0 mi SE 3.5 mph - N/A   Clear
2:33 AM 40.8 °F 37.8 °F 34.5 °F 78% 29.92 in 10.0 mi SE 4.6 mph - N/A   Clear
2:53 AM 40.5 °F 38.4 °F 34.7 °F 80% 29.91 in 10.0 mi SE 3.5 mph - N/A   Clear
3:12 AM 40.5 °F 37.3 °F 34.9 °F 80% 29.90 in 10.0 mi SE 4.6 mph - N/A   Clear
3:33 AM 39.2 °F 37.0 °F 34.9 °F 84% 29.89 in 10.0 mi SE 3.5 mph - N/A   Clear
3:52 AM 39.7 °F 35.6 °F 35.1 °F 83% 29.89 in 10.0 mi SE 5.8 mph - N/A   Clear
4:12 AM 39.7 °F 37.6 °F 35.4 °F 85% 29.88 in 10.0 mi SE 3.5 mph - N/A   Clear
4:33 AM 40.3 °F 37.1 °F 35.8 °F 84% 29.87 in 10.0 mi SSE 4.6 mph - N/A   Clear
4:53 AM 41.0 °F 37.1 °F 36.5 °F 84% 29.87 in 10.0 mi SSE 5.8 mph - N/A   Clear
5:13 AM 41.9 °F 39.0 °F 36.5 °F 81% 29.87 in 10.0 mi SSE 4.6 mph - N/A   Clear
5:33 AM 41.2 °F 39.2 °F 36.5 °F 83% 29.87 in 10.0 mi SSE 3.5 mph - N/A   Clear
5:52 AM 40.6 °F 36.7 °F 36.5 °F 85% 29.86 in 10.0 mi SE 5.8 mph - N/A   Clear
6:13 AM 40.1 °F 36.1 °F 36.5 °F 87% 29.86 in 10.0 mi SE 5.8 mph - N/A   Clear
6:33 AM 39.6 °F 36.3 °F 36.5 °F 89% 29.86 in 10.0 mi SSE 4.6 mph - N/A   Clear
6:52 AM 39.4 °F 36.1 °F 36.7 °F 90% 29.85 in 10.0 mi SE 4.6 mph - N/A   Clear
7:13 AM 39.4 °F 35.2 °F 37.0 °F 91% 29.85 in 10.0 mi SE 5.8 mph - N/A   Clear
7:32 AM 39.7 °F 34.9 °F 37.4 °F 91% 29.84 in 10.0 mi SE 6.9 mph - N/A   Clear
7:53 AM 40.6 °F 36.7 °F 37.6 °F 89% 29.84 in 10.0 mi SE 5.8 mph - N/A   Clear
8:13 AM 41.7 °F 38.0 °F 37.9 °F 86% 29.84 in 10.0 mi SE 5.8 mph - N/A   Clear
8:32 AM 43.0 °F 38.8 °F 38.3 °F 84% 29.84 in 10.0 mi SE 6.9 mph - N/A   Clear
8:53 AM 44.4 °F 40.5 °F 38.8 °F 81% 29.84 in 10.0 mi SSE 6.9 mph - N/A   Clear
9:13 AM 46.0 °F 42.5 °F 39.4 °F 78% 29.83 in 10.0 mi SSE 6.9 mph - N/A   Clear
9:32 AM 47.7 °F - 39.7 °F 74% 29.83 in 10.0 mi SSE 10.4 mph - N/A   Clear
9:53 AM 49.6 °F - 39.7 °F 69% 29.82 in 10.0 mi SSE 11.5 mph 16.1 mph N/A   Clear
10:13 AM 51.6 °F - 39.9 °F 64% 29.82 in 10.0 mi SSE 10.4 mph 16.1 mph N/A   Clear
10:32 AM 53.6 °F - 40.1 °F 60% 29.82 in 10.0 mi SSE 9.2 mph - N/A   Clear
10:53 AM 55.2 °F - 39.9 °F 56% 29.81 in 10.0 mi SSE 11.5 mph 16.1 mph N/A   Clear
11:13 AM 55.4 °F - 40.3 °F 57% 29.80 in 10.0 mi SSE 11.5 mph 18.4 mph N/A   Clear
11:32 AM 56.8 °F - 41.0 °F 55% 29.80 in 10.0 mi SSE 6.9 mph 19.6 mph N/A   Clear
11:53 AM 57.4 °F - 41.4 °F 55% 29.79 in 10.0 mi SSE 8.1 mph 18.4 mph N/A   Clear
12:13 PM 58.1 °F - 41.9 °F 55% 29.79 in 10.0 mi SSE 6.9 mph 17.3 mph N/A   Clear
12:33 PM 59.7 °F - 41.9 °F 52% 29.78 in 10.0 mi SE 11.5 mph 18.4 mph N/A   Clear
12:53 PM 60.6 °F - 41.4 °F 49% 29.77 in 10.0 mi SSE 12.7 mph 20.7 mph N/A   Clear
1:13 PM 62.1 °F - 41.0 °F 46% 29.76 in 10.0 mi SSE 12.7 mph 21.9 mph N/A   Clear
1:33 PM 62.8 °F - 38.1 °F 40% 29.75 in 10.0 mi SSE 12.7 mph 20.7 mph N/A   Clear
1:52 PM 63.1 °F - 36.7 °F 37% 29.75 in 10.0 mi SE 13.8 mph 26.5 mph N/A   Clear
2:12 PM 63.5 °F - 35.6 °F 35% 29.73 in 10.0 mi SE 13.8 mph 23.0 mph N/A   Clear
2:33 PM 64.6 °F - 36.0 °F 35% 29.72 in 10.0 mi SE 17.3 mph 23.0 mph N/A   Clear
2:53 PM 63.1 °F - 36.3 °F 37% 29.72 in 10.0 mi SE 17.3 mph 25.3 mph N/A   Clear
3:12 PM 63.1 °F - 38.1 °F 40% 29.72 in 10.0 mi SE 16.1 mph 21.9 mph N/A   Clear
3:33 PM 63.5 °F - 38.8 °F 40% 29.72 in 10.0 mi SE 16.1 mph 21.9 mph N/A   Clear
3:52 PM 63.7 °F - 39.6 °F 41% 29.72 in 10.0 mi SE 13.8 mph 25.3 mph N/A   Clear
4:13 PM 62.8 °F - 39.2 °F 42% 29.71 in 10.0 mi SE 15.0 mph 23.0 mph N/A   Clear
4:33 PM 62.2 °F - 39.9 °F 44% 29.71 in 10.0 mi SE 18.4 mph 23.0 mph N/A   Clear
4:52 PM 61.9 °F - 40.3 °F 45% 29.71 in 10.0 mi SE 15.0 mph 23.0 mph N/A   Clear
5:13 PM 61.7 °F - 39.7 °F 44% 29.72 in 10.0 mi SE 13.8 mph 19.6 mph N/A   Clear
5:33 PM 60.3 °F - 39.2 °F 46% 29.72 in 10.0 mi SE 11.5 mph 19.6 mph N/A   Clear
5:52 PM 59.4 °F - 39.4 °F 48% 29.73 in 10.0 mi SE 11.5 mph - N/A   Clear
6:13 PM 58.3 °F - 40.5 °F 52% 29.73 in 10.0 mi SE 11.5 mph 18.4 mph N/A   Clear
6:33 PM 57.2 °F - 41.7 °F 56% 29.74 in 10.0 mi SE 9.2 mph 18.4 mph N/A   Scattered Clouds
6:52 PM 55.8 °F - 41.7 °F 59% 29.75 in 10.0 mi SE 10.4 mph 16.1 mph N/A   Scattered Clouds
7:12 PM 54.1 °F - 42.1 °F 64% 29.75 in 10.0 mi SE 8.1 mph - N/A   Scattered Clouds
7:33 PM 53.1 °F - 41.9 °F 66% 29.76 in 10.0 mi SE 9.2 mph - N/A   Scattered Clouds
7:52 PM 52.9 °F - 41.9 °F 66% 29.76 in 10.0 mi SE 9.2 mph - N/A   Clear
8:12 PM 52.7 °F - 42.1 °F 67% 29.76 in 10.0 mi SE 9.2 mph - N/A   Clear
8:32 PM 52.0 °F - 42.8 °F 71% 29.76 in 10.0 mi SE 8.1 mph - N/A   Mostly Cloudy
8:53 PM 52.0 °F - 43.7 °F 73% 29.77 in 10.0 mi SE 8.1 mph - N/A   Overcast
9:12 PM 52.5 °F - 45.0 °F 75% 29.77 in 10.0 mi SE 6.9 mph - N/A   Overcast
9:33 PM 52.7 °F - 46.4 °F 79% 29.77 in 10.0 mi SE 5.8 mph - N/A   Overcast
9:53 PM 53.2 °F - 47.7 °F 81% 29.78 in 10.0 mi SE 6.9 mph - N/A   Overcast
10:12 PM 53.6 °F - 48.7 °F 84% 29.78 in 10.0 mi SE 5.8 mph - N/A   Overcast
10:33 PM 53.8 °F - 49.1 °F 84% 29.77 in 10.0 mi SE 6.9 mph - N/A   Overcast
10:53 PM 53.6 °F - 49.1 °F 85% 29.78 in 10.0 mi SE 8.1 mph - N/A   Overcast
11:12 PM 53.6 °F - 49.1 °F 85% 29.78 in 7.0 mi SSE 5.8 mph - N/A   Overcast
11:33 PM 53.2 °F - 49.3 °F 86% 29.78 in 7.0 mi SSE 5.8 mph - N/A   Overcast
11:53 PM 53.1 °F - 49.5 °F 88% 29.78 in 7.0 mi SE 5.8 mph - N/A   Overcast